STARLINK-37660, 69132

Orbit data source: Space-Track

STARLINK-37660, 69132 is a payload satellite owned by SpaceX/Seattle (US) in SSO that was launched on Wed, 20 May 2026 UTC via an FALCON 9 launch vehicle from the Air Force Western Test Range (AFWTR). Payload-class satellites include a variety of spacecraft equipped with specific instruments for various scientific and technological missions. These include communications satellites like Starlink; space stations such as the ISS; scientific satellites like the Hubble; Earth observation satellites from companies like Planet Labs, Umbra, and HawkEye 360; GPS; miniature CubeSats for education and research; and military/defense satellites.

Loading next visibility...
Identifier
69132, 2026-110J
Orbit
SSO
Country
Flag of USUS
Related business
Manufacturer
SpaceX/Seattle
Mission
Operational spacecraft
Bus & Motor
STARLINK V2MO, Unknown motor
Mass
575 kg wet, ~530 kg dry
Launch date (UTC)
2026-05-20 (1 month ago)
Launch vehicle
FALCON 9
Launch site
Air Force Western Test Range (AFWTR)
Object type
Payload
Rocket body
Debris
Shape & HBR
Unknown shape, 14.5 m
Radar Cross Section
Large (>1 m²)

Expand to show TLE details & history
Last TLE update: 10 hours ago

TLE from 10 hours ago
0 STARLINK-37660
1 69132U 26110J   26171.41668980  .00073522  00000-0  22627-2 0  9990
2 69132  97.2860   7.7761 0002460  79.8151 277.0845 15.33371621  5893
Epoch: 2026-06-20T10:00Z
TLE epoch observation values (Epoch: 2026-06-20T10:00:01.998Z)
Latitude
-3.24712°
Longitude
-50.45054°
Altitude
469.145 km
Speed
7.631 km/s
True Right ascension
00h 32m 45s
True Declination
-3° 13' 37"
Sunlit
Object was in daylight at epoch
Visualization orbit readout
Latitude
Unknown
Longitude
Unknown
Altitude
Unknown
Speed
Unknown
Apparent Right ascension
Unknown
Apparent Declination
Unknown
Sunlit
N/A
Visualization observer readout
Local Sidereal Time
07:16:29
Azimuth
Unknown
Elevation
Unknown
Doppler factor
Unknown
Orbital elements
Apogee altitude
464.387 km
Perigee altitude
461.022 km
Semi-major axis
6,840.841 km
Eccentricity
0.00025
Inclination
97.286°
RAAN
7.7761°
Arg. of periapsis
79.8151°
True anomaly
277.05652°
Mean anomaly
277.0845°
Eccentric anomaly
277.07051°
Mean motion
3.836 °/min
Orbital period
93.85 mins
BSTAR
0.0022627
Loading maneuver chart data...
Computing Atmospheric mass density...
Loading historical data...
Loading historical data...
Loading historical data...
Loading historical data...
Loading historical data...
Loading historical data...
Loading historical data...

Documentation

Showing up to 5 results
|